AJ5AG Weather Reports


time (UTC)temp
F
wind
direction
speed
knots
gust
knots
rain 1hr
in
rain 24hr
in
rain mn
in
humidity
%
barometer
mb
20260509201345 89 120 0.0 1.7 0.00 0.00 0.00 60 1011.2
20260509200842 90 194 0.9 1.7 0.00 0.00 0.00 60 1011.3
20260509200336 89 100 0.0 1.7 0.00 0.00 0.00 63 1011.3
20260509195834 87 83 0.0 0.0 0.00 0.00 0.00 64 1011.5
20260509195334 87 109 0.0 1.7 0.00 0.00 0.00 64 1011.5
20260509194833 87 111 0.0 0.0 0.00 0.00 0.00 64 1011.6
20260509194330 89 111 0.0 0.0 0.00 0.00 0.00 63 1011.7
20260509193827 90 89 1.7 1.7 0.00 0.00 0.00 61 1011.7
20260509193327 89 137 0.9 0.9 0.00 0.00 0.00 64 1011.9
20260509192823 88 220 0.9 1.7 0.00 0.00 0.00 63 1011.9
20260509192319 88 142 0.9 1.7 0.00 0.00 0.00 63 1011.9
20260509191814 88 108 0.9 1.7 0.00 0.00 0.00 63 1011.9
20260509191311 88 77 1.7 1.7 0.00 0.00 0.00 66 1012.1
20260509190806 87 99 0.0 0.9 0.00 0.00 0.00 68 1012.1
20260509190304 88 111 0.0 0.0 0.00 0.00 0.00 68 1012.2
20260509185801 88 107 0.0 0.0 0.00 0.00 0.00 67 1012.3
20260509185257 87 29 0.9 0.9 0.00 0.00 0.00 69 1012.3
20260509184755 87 111 0.0 1.7 0.00 0.00 0.00 67 1012.4
20260509184252 87 126 0.0 0.0 0.00 0.00 0.00 67 1012.5
20260509183748 87 144 0.0 1.7 0.00 0.00 0.00 69 1012.4
20260509183244 86 115 0.0 0.9 0.00 0.00 0.00 71 1012.6
20260509182739 86 86 0.0 0.9 0.00 0.00 0.00 71 1012.6
20260509182237 87 104 0.9 0.9 0.00 0.00 0.00 71 1012.6
20260509181734 87 117 0.9 1.7 0.00 0.00 0.00 70 1012.7
20260509181232 86 107 0.9 1.7 0.00 0.00 0.00 71 1012.9
20260509180729 85 77 0.9 0.9 0.00 0.00 0.00 74 1012.9
20260509180225 85 81 0.0 0.9 0.00 0.00 0.00 72 1013.0
20260509175721 85 43 0.0 1.7 0.00 0.00 0.00 73 1012.9
20260509175218 84 76 0.0 0.9 0.00 0.00 0.00 76 1013.0
20260509174714 84 133 1.7 1.7 0.00 0.00 0.00 76 1012.9
20260509174209 84 212 0.0 0.9 0.00 0.00 0.00 76 1013.2
20260509173706 84 95 0.0 0.9 0.00 0.00 0.00 78 1013.1
20260509173201 83 109 0.0 0.9 0.00 0.00 0.00 77 1013.2
20260509172657 83 119 0.9 0.9 0.00 0.00 0.00 79 1013.2
20260509172154 82 90 0.0 0.0 0.00 0.00 0.00 80 1013.3
20260509171649 82 107 0.0 0.9 0.00 0.00 0.00 79 1013.3
20260509171146 82 111 0.0 0.0 0.00 0.00 0.00 79 1013.2
20260509170643 82 76 0.0 0.0 0.00 0.00 0.00 79 1013.2
20260509170139 81 103 0.0 0.9 0.00 0.00 0.00 78 1013.2
20260509165637 81 101 0.9 0.9 0.00 0.00 0.00 79 1013.3
20260509165133 82 133 0.9 1.7 0.00 0.00 0.00 79 1013.1
20260509164629 82 60 0.0 0.0 0.00 0.00 0.00 80 1013.2
20260509164125 81 81 0.0 0.9 0.00 0.00 0.00 80 1013.4
20260509163623 80 124 0.0 0.0 0.00 0.00 0.00 83 1013.3
20260509163118 80 124 0.0 0.0 0.00 0.00 0.00 82 1013.5
20260509162616 81 92 0.0 0.9 0.00 0.00 0.00 81 1013.6
20260509162112 80 116 0.0 0.0 0.00 0.00 0.00 83 1013.7
20260509161608 80 117 0.0 0.0 0.00 0.00 0.00 84 1013.5
20260509161108 79 92 0.0 0.0 0.00 0.00 0.00 84 1013.6
20260509160605 79 88 0.0 0.0 0.00 0.00 0.00 84 1013.7
20260509160100 80 119 0.9 0.9 0.00 0.00 0.00 84 1013.9
20260509155556 80 79 0.0 0.9 0.00 0.00 0.00 85 1013.7
20260509155053 79 70 0.0 0.0 0.00 0.00 0.00 86 1013.9
20260509154549 79 87 0.0 0.0 0.00 0.00 0.00 87 1013.9
20260509154047 79 87 0.0 0.9 0.00 0.00 0.00 87 1013.7
20260509153543 79 87 0.0 0.0 0.00 0.00 0.00 87 1013.7
20260509153040 78 87 0.0 0.0 0.00 0.00 0.00 88 1013.7
20260509152536 78 87 0.0 0.0 0.00 0.00 0.00 88 1013.5
20260509152033 78 87 0.0 0.0 0.00 0.00 0.00 89 1013.6
20260509151529 77 87 0.0 0.0 0.00 0.00 0.00 89 1013.5
20260509151027 77 87 0.0 0.0 0.00 0.00 0.00 89 1013.3
20260509150525 77 87 0.0 0.0 0.00 0.00 0.00 89 1013.4
20260509150023 77 87 0.0 0.0 0.00 0.00 0.00 88 1013.3
20260509145518 78 86 0.0 0.0 0.00 0.00 0.00 88 1013.4
20260509145013 78 111 0.0 0.0 0.00 0.00 0.00 88 1013.0
20260509144511 78 91 0.0 0.9 0.00 0.00 0.00 89 1013.0
20260509144008 78 80 0.0 0.0 0.00 0.00 0.00 89 1012.9
20260509143504 77 74 0.0 0.0 0.00 0.00 0.00 91 1012.8
20260509143001 77 69 0.0 0.0 0.00 0.00 0.00 94 1012.7
20260509142458 77 44 0.0 0.9 0.00 0.00 0.00 95 1012.5
20260509141953 76 58 0.9 0.9 0.00 0.00 0.00 97 1012.5
20260509141450 75 122 0.0 0.9 0.00 0.00 0.00 97 1012.2
20260509140947 75 89 0.0 1.7 0.00 0.00 0.00 98 1012.7
20260509140443 75 121 0.0 2.6 0.00 0.00 0.00 98 1012.6
20260509135942 74 93 0.0 0.0 0.00 0.00 0.00 98 1012.8
20260509135439 74 80 0.0 0.9 0.00 0.00 0.00 98 1012.9
20260509134936 74 101 0.0 0.9 0.00 0.00 0.00 98 1012.7
20260509134434 74 116 0.9 1.7 0.00 0.00 0.00 98 1013.0
20260509133931 73 119 0.0 0.9 0.00 0.00 0.00 98 1013.1
20260509133427 73 96 0.0 0.0 0.00 0.00 0.00 98 1013.1
20260509132926 73 116 0.0 0.0 0.00 0.00 0.00 98 1013.3
20260509132423 73 102 0.0 0.0 0.00 0.00 0.00 98 1013.3
20260509131920 73 89 0.0 0.0 0.00 0.00 0.00 98 1012.9
20260509131418 73 106 0.0 0.0 0.00 0.00 0.00 98 1013.1
20260509130914 73 107 0.0 0.0 0.00 0.00 0.00 97 1013.1
20260509130409 73 99 0.0 0.0 0.00 0.00 0.00 98 1013.1
20260509125906 73 99 0.0 0.0 0.00 0.00 0.00 97 1013.2
20260509125403 73 99 0.0 0.0 0.00 0.00 0.00 97 1013.3
20260509124858 73 99 0.0 0.0 0.00 0.00 0.00 97 1013.5
20260509124356 73 99 0.0 0.0 0.00 0.00 0.00 97 1013.3
20260509123854 73 99 0.0 0.0 0.00 0.00 0.00 97 1013.3
20260509123351 73 99 0.0 0.0 0.00 0.00 0.00 97 1013.5
20260509122847 73 99 0.0 0.0 0.00 0.00 0.00 97 1013.3
20260509122344 73 99 0.0 0.0 0.00 0.00 0.00 97 1013.4
20260509121841 73 99 0.0 0.0 0.00 0.00 0.00 97 1013.5
20260509121337 73 99 0.0 0.0 0.00 0.00 0.00 97 1013.3
20260509120836 73 99 0.0 0.0 0.00 0.00 0.00 97 1013.4
20260509120333 72 99 0.0 0.0 0.00 0.00 0.00 97 1013.1
20260509115831 72 99 0.0 0.0 0.00 0.00 0.00 97 1013.2
20260509115328 72 99 0.0 0.0 0.00 0.00 0.00 97 1013.1
20260509114826 72 99 0.0 0.0 0.00 0.00 0.00 97 1012.9
20260509114324 72 99 0.0 0.0 0.00 0.00 0.00 97 1012.9
20260509113824 72 99 0.0 0.0 0.00 0.00 0.00 97 1012.8
20260509113320 72 99 0.0 0.0 0.00 0.00 0.00 97 1012.9
20260509112816 72 99 0.0 0.0 0.00 0.00 0.00 97 1012.8
20260509112314 72 99 0.0 0.0 0.00 0.00 0.00 97 1012.8
20260509111811 72 99 0.0 0.0 0.00 0.00 0.00 97 1012.6
20260509111307 72 99 0.0 0.0 0.00 0.00 0.00 97 1012.3
20260509110805 72 99 0.0 0.0 0.00 0.00 0.00 97 1012.3
20260509110301 72 99 0.0 0.0 0.00 0.00 0.00 97 1012.0
20260509105800 72 99 0.0 0.0 0.00 0.00 0.00 97 1012.1
20260509105257 72 99 0.0 0.0 0.00 0.00 0.00 97 1012.2
20260509104754 72 99 0.0 0.0 0.00 0.00 0.00 97 1012.5
20260509104250 72 99 0.0 0.0 0.00 0.00 0.00 97 1012.5
20260509103749 72 99 0.0 0.0 0.00 0.00 0.00 97 1012.8
20260509103246 72 99 0.0 0.0 0.00 0.00 0.00 97 1012.9
20260509102744 72 99 0.0 0.0 0.00 0.00 0.00 97 1012.6
20260509102241 72 99 0.0 0.0 0.00 0.00 0.00 97 1012.7
20260509101737 72 99 0.0 0.0 0.00 0.00 0.00 97 1012.9
20260509101233 72 99 0.0 0.0 0.00 0.00 0.00 97 1012.6
20260509100731 72 99 0.0 0.0 0.00 0.00 0.00 97 1012.9
20260509100228 72 99 0.0 0.0 0.00 0.00 0.00 97 1012.7
20260509095724 72 99 0.0 0.0 0.00 0.00 0.00 97 1012.8
20260509095222 72 99 0.0 0.0 0.00 0.00 0.00 97 1012.7
20260509094719 72 99 0.0 0.0 0.00 0.00 0.00 97 1012.6
20260509094215 72 99 0.0 0.0 0.00 0.00 0.00 97 1012.4
20260509093714 72 99 0.0 0.0 0.00 0.00 0.00 97 1012.6
20260509093211 72 99 0.0 0.0 0.00 0.00 0.00 97 1012.7
20260509092709 72 99 0.0 0.0 0.00 0.00 0.00 97 1012.5
20260509092207 72 99 0.0 0.0 0.00 0.00 0.00 97 1012.5
20260509091704 72 99 0.0 0.0 0.00 0.00 0.00 97 1012.6
20260509091200 72 99 0.0 0.0 0.00 0.00 0.00 97 1012.6
20260509090658 72 99 0.0 0.0 0.00 0.00 0.00 97 1012.7
20260509090155 72 99 0.0 0.0 0.00 0.00 0.00 97 1012.8
20260509085653 72 99 0.0 0.0 0.00 0.00 0.00 97 1012.8
20260509085149 72 99 0.0 0.0 0.00 0.00 0.00 97 1013.0
20260509084646 72 99 0.0 0.0 0.00 0.00 0.00 97 1012.9
20260509084143 72 99 0.0 0.0 0.00 0.00 0.00 97 1013.0
20260509083641 72 99 0.0 0.0 0.00 0.00 0.00 97 1013.1
20260509083137 72 99 0.0 0.0 0.00 0.00 0.00 97 1013.0
20260509082634 72 99 0.0 0.0 0.00 0.00 0.00 97 1012.9
20260509082131 72 99 0.0 0.0 0.00 0.00 0.00 97 1013.1
20260509081628 72 99 0.0 0.0 0.00 0.00 0.00 97 1012.9
20260509081125 72 99 0.0 0.0 0.00 0.00 0.00 97 1013.1
20260509080623 72 99 0.0 0.0 0.00 0.00 0.00 97 1013.0
20260509080121 72 99 0.0 0.0 0.00 0.00 0.00 97 1013.0
20260509075619 72 99 0.0 0.0 0.00 0.00 0.00 97 1013.1
20260509075116 72 99 0.0 0.0 0.00 0.00 0.00 97 1012.9
20260509074613 72 99 0.0 0.0 0.00 0.00 0.00 97 1012.9
20260509074109 72 99 0.0 0.0 0.00 0.00 0.00 97 1012.9
20260509073606 72 99 0.0 0.0 0.00 0.00 0.00 97 1012.9
20260509073102 72 99 0.0 0.0 0.00 0.00 0.00 97 1012.6
20260509072559 72 99 0.0 0.0 0.00 0.00 0.00 97 1012.6
20260509072056 72 99 0.0 0.0 0.00 0.00 0.00 97 1012.8
20260509071553 72 99 0.0 0.0 0.00 0.00 0.00 97 1012.9
20260509071050 72 99 0.0 0.0 0.00 0.00 0.00 97 1012.8
20260509070547 72 99 0.0 0.0 0.00 0.00 0.00 97 1012.8
20260509070043 72 99 0.0 0.0 0.00 0.00 0.00 97 1012.9
20260509065538 72 99 0.0 0.0 0.00 0.00 0.00 97 1012.7
20260509065035 72 99 0.0 0.0 0.00 0.00 0.00 97 1012.9
20260509064533 72 99 0.0 0.0 0.00 0.00 0.00 97 1012.7
20260509064032 72 99 0.0 0.0 0.00 0.00 0.00 96 1012.8
20260509063532 72 92 0.0 0.0 0.00 0.00 0.00 96 1012.8
20260509063030 72 112 0.0 0.0 0.00 0.00 0.00 96 1012.8
20260509062526 72 104 0.0 0.0 0.00 0.00 0.00 96 1012.7
20260509062024 72 96 0.0 0.0 0.00 0.00 0.00 96 1012.6
20260509061521 72 116 0.0 0.0 0.00 0.00 0.00 96 1012.8
20260509061018 72 97 0.0 2.6 0.00 0.00 0.00 96 1012.6
20260509060515 72 115 0.0 2.6 0.00 0.00 0.00 96 1012.8
20260509060011 72 93 1.7 1.7 0.00 0.00 0.00 96 1012.9
20260509055506 72 109 1.7 2.6 0.00 0.00 0.00 96 1013.1
20260509055003 72 90 0.0 3.5 0.00 0.00 0.00 96 1013.0
20260509054500 72 84 0.0 0.9 0.00 0.00 0.00 95 1013.0
20260509053958 72 94 0.0 1.7 0.00 0.00 0.00 95 1012.9
20260509053456 72 120 0.0 1.7 0.00 0.00 0.00 95 1013.0
20260509052953 72 93 0.0 0.9 0.00 0.00 0.00 95 1013.2
20260509052450 72 108 0.0 0.9 0.00 0.00 0.00 95 1013.3
20260509051948 72 100 0.9 1.7 0.00 0.00 0.00 95 1013.1
20260509051446 72 118 0.0 2.6 0.00 0.00 0.00 95 1013.1
20260509050943 72 97 0.9 1.7 0.00 0.00 0.00 95 1013.2
20260509050439 72 121 0.0 1.7 0.00 0.00 0.00 94 1013.1
20260509045936 72 91 1.7 2.6 0.00 0.00 0.00 94 1013.1
20260509045433 72 116 1.7 3.5 0.00 0.00 0.00 94 1013.2
20260509044929 72 100 0.0 0.9 0.00 0.00 0.00 94 1013.2
20260509044428 72 129 0.9 2.6 0.00 0.00 0.00 94 1013.3
20260509043925 72 97 0.0 0.9 0.00 0.00 0.00 94 1013.2
20260509043420 72 115 0.9 2.6 0.00 0.00 0.00 93 1013.0
20260509042916 72 110 0.9 2.6 0.00 0.00 0.00 93 1013.1
20260509042413 72 95 0.0 1.7 0.00 0.00 0.00 93 1013.1
20260509041909 72 139 0.9 1.7 0.00 0.00 0.00 93 1013.0
20260509041406 72 105 0.9 0.9 0.00 0.00 0.00 93 1013.0
20260509040904 72 105 0.0 0.9 0.00 0.00 0.00 92 1013.0
20260509040402 72 110 0.9 1.7 0.00 0.00 0.00 92 1013.0
20260509035859 72 92 0.0 0.0 0.00 0.00 0.00 92 1013.1
20260509035355 72 137 1.7 2.6 0.00 0.00 0.00 92 1013.2
20260509034851 72 106 0.9 2.6 0.00 0.00 0.00 92 1012.9
20260509034350 72 122 0.9 1.7 0.00 0.00 0.00 91 1013.0
20260509033847 72 125 0.9 1.7 0.00 0.00 0.00 91 1012.9
20260509033344 72 101 0.0 1.7 0.00 0.00 0.00 91 1013.0
20260509032840 72 94 0.0 0.0 0.00 0.00 0.00 91 1012.9
20260509032338 72 102 0.0 0.0 0.00 0.00 0.00 91 1012.8
20260509031836 72 95 0.0 1.7 0.00 0.00 0.00 91 1012.6
20260509031333 72 121 1.7 1.7 0.00 0.00 0.00 90 1012.5
20260509030830 72 115 1.7 2.6 0.00 0.00 0.00 90 1012.5
20260509030328 73 96 0.9 2.6 0.00 0.00 0.00 90 1012.5
20260509025824 73 106 0.0 5.2 0.00 0.00 0.00 90 1012.4
20260509025320 73 90 1.7 1.7 0.00 0.00 0.00 90 1012.4
20260509024815 73 98 0.0 1.7 0.00 0.00 0.00 89 1012.4
20260509024312 73 123 0.0 0.9 0.00 0.00 0.00 89 1012.3
20260509023809 73 87 0.0 0.0 0.00 0.00 0.00 89 1012.1
20260509023307 73 104 0.9 2.6 0.00 0.00 0.00 89 1012.1
20260509022803 73 117 1.7 3.5 0.00 0.00 0.00 89 1012.1
20260509022300 73 103 2.6 2.6 0.00 0.00 0.00 89 1012.2
20260509021757 73 112 0.0 0.9 0.00 0.00 0.00 89 1012.3
20260509021254 73 107 0.0 0.9 0.00 0.00 0.00 89 1012.2
20260509020752 73 106 0.0 0.0 0.00 0.00 0.00 89 1012.2
20260509020249 73 98 0.0 1.7 0.00 0.00 0.00 88 1012.2
20260509015747 73 117 0.0 1.7 0.00 0.00 0.00 88 1012.1
20260509015245 73 100 0.0 3.5 0.00 0.00 0.00 87 1012.2
20260509014741 73 134 0.9 1.7 0.00 0.00 0.00 87 1012.1
20260509014238 73 97 0.9 6.1 0.00 0.00 0.00 87 1011.9
20260509013735 74 112 0.0 0.0 0.00 0.00 0.00 87 1011.9
20260509013230 74 117 0.0 0.0 0.00 0.00 0.00 86 1011.9
20260509012727 74 102 0.0 0.0 0.00 0.00 0.00 86 1011.9
20260509012224 74 104 0.0 0.9 0.00 0.00 0.00 86 1011.9
20260509011722 74 86 0.0 0.0 0.00 0.00 0.00 86 1011.6
20260509011219 74 168 2.6 2.6 0.00 0.00 0.00 85 1011.8
20260509010717 74 75 0.0 0.0 0.00 0.00 0.00 85 1011.7
20260509010213 74 94 0.0 0.0 0.00 0.00 0.00 84 1011.9
20260509005711 75 85 0.0 0.9 0.00 0.00 0.00 84 1011.8
20260509005208 75 102 0.0 0.9 0.00 0.00 0.00 83 1011.9
20260509004708 75 95 0.9 0.9 0.00 0.00 0.00 83 1012.0
20260509004206 75 140 0.0 0.9 0.00 0.00 0.00 83 1012.0
20260509003704 75 95 0.0 1.7 0.00 0.00 0.00 82 1011.9
20260509003201 75 107 0.0 1.7 0.00 0.00 0.00 82 1011.8
20260509002658 75 118 0.0 0.9 0.00 0.00 0.00 83 1011.9
20260509002155 75 111 0.0 0.9 0.00 0.00 0.00 83 1011.9
20260509001653 76 98 0.9 3.5 0.00 0.00 0.00 82 1012.0
20260509001148 76 131 0.0 0.9 0.00 0.00 0.00 83 1012.0
20260509000647 76 105 0.0 0.0 0.00 0.00 0.00 84 1012.0
20260509000144 76 101 0.0 0.0 0.00 0.00 0.00 84 1012.1
20260508235641 76 107 0.0 0.0 0.00 0.00 0.00 84 1012.1
20260508235137 76 128 0.0 0.0 0.00 0.00 0.00 84 1012.4
20260508234635 76 109 0.0 0.0 0.00 0.00 0.00 84 1012.0
20260508234131 76 104 0.0 0.0 0.00 0.00 0.00 84 1012.1
20260508233631 76 55 0.0 0.0 0.00 0.00 0.00 84 1012.5
20260508233128 77 109 0.0 0.0 0.00 0.00 0.00 84 1012.1
20260508232625 77 107 0.0 0.0 0.00 0.00 0.00 84 1012.2
20260508232121 77 64 0.0 0.0 0.00 0.00 0.00 84 1011.9
20260508231619 77 104 0.0 0.0 0.00 0.00 0.00 84 1011.8
20260508231116 76 172 0.0 0.0 0.00 0.00 0.00 84 1012.0
20260508230612 77 118 0.0 0.0 0.00 0.00 0.00 83 1012.0
20260508230109 77 132 1.7 2.6 0.00 0.00 0.00 82 1012.1
20260508225607 77 98 0.9 1.7 0.00 0.00 0.00 82 1012.2
20260508225103 77 102 0.0 0.0 0.00 0.00 0.00 81 1012.1
20260508224601 77 101 0.0 1.7 0.00 0.00 0.00 81 1012.3
20260508224058 78 118 0.0 3.5 0.00 0.00 0.00 81 1012.0
20260508223556 77 112 0.0 0.9 0.00 0.00 0.00 81 1012.1
20260508223052 78 110 0.9 5.2 0.00 0.00 0.00 80 1012.0
20260508222550 78 98 0.0 0.0 0.00 0.00 0.00 80 1011.9
20260508222047 78 146 0.9 1.7 0.00 0.00 0.00 78 1012.0
20260508221543 78 80 0.9 0.9 0.00 0.00 0.00 79 1012.1
20260508221038 78 106 0.0 0.9 0.00 0.00 0.00 79 1012.1
20260508220536 78 126 0.9 5.2 0.00 0.00 0.00 79 1012.3
20260508220032 78 94 0.0 0.9 0.00 0.00 0.00 78 1012.1
20260508215529 79 115 0.0 0.9 0.00 0.00 0.00 78 1012.3
20260508215026 79 106 0.0 3.5 0.00 0.00 0.00 77 1012.4
20260508214524 79 110 0.0 0.0 0.00 0.00 0.00 77 1012.3
20260508214020 79 84 0.0 0.0 0.00 0.00 0.00 76 1012.2
20260508213517 79 98 0.0 0.0 0.00 0.00 0.00 77 1012.0
20260508213013 78 90 0.0 0.9 0.00 0.00 0.00 77 1012.2
20260508212509 78 105 0.0 0.9 0.00 0.00 0.00 77 1012.3
20260508212006 78 104 0.0 0.9 0.00 0.00 0.00 77 1012.4
20260508211501 78 95 0.0 0.9 0.00 0.00 0.00 77 1012.4
20260508210958 78 64 0.0 0.0 0.00 0.00 0.00 77 1012.3
20260508210455 78 113 0.0 0.0 0.00 0.00 0.00 76 1012.3
20260508205951 78 87 0.0 0.9 0.00 0.00 0.00 76 1012.5
20260508205449 78 33 0.0 0.0 0.00 0.00 0.00 76 1012.6
20260508204944 77 45 0.9 1.7 0.00 0.00 0.00 76 1012.6
20260508204442 77 96 0.0 0.0 0.00 0.00 0.00 77 1012.9
20260508203937 77 74 0.0 0.0 0.00 0.00 0.00 77 1012.8
20260508203434 77 136 0.9 2.6 0.00 0.00 0.00 76 1013.0
20260508202929 77 69 0.0 0.0 0.00 0.00 0.00 77 1012.9
20260508202427 77 66 0.0 0.0 0.00 0.00 0.00 77 1012.8
20260508201924 77 75 0.0 0.9 0.00 0.00 0.00 77 1013.1